Time,TemperatureF,DewpointF,PressureIn,WindDirection,WindDirectionDegrees,WindSpeedMPH,WindSpeedGustMPH,Humidity,HourlyPrecipIn,Conditions,Clouds,dailyrainin,SoftwareType,DateUTC
2013-04-22 00:03:00,79.0,73.0,26.41,SE,143,10.0,14.0,81,0.00,,,0.00,,2013-04-22 04:03:00,
2013-04-22 00:12:00,79.0,73.0,26.41,SE,143,10.0,14.0,81,0.00,,,0.00,,2013-04-22 04:12:00,
2013-04-22 00:23:00,79.0,72.0,26.41,SE,129,10.0,12.0,78,0.00,,,0.00,,2013-04-22 04:23:00,
2013-04-22 00:33:00,79.0,72.0,26.41,SE,136,10.0,13.0,78,0.00,,,0.00,,2013-04-22 04:33:00,
2013-04-22 00:43:00,79.0,72.0,26.41,SE,136,10.0,13.0,78,0.00,,,0.00,,2013-04-22 04:43:00,
2013-04-22 00:53:00,79.0,72.0,26.41,SE,128,12.0,14.0,78,0.00,,,0.00,,2013-04-22 04:53:00,
2013-04-22 01:02:00,79.0,71.0,26.41,ESE,105,14.0,17.0,76,0.00,,,0.00,,2013-04-22 05:02:00,
2013-04-22 01:12:00,79.0,72.0,26.41,SE,127,10.0,14.0,78,0.00,,,0.00,,2013-04-22 05:12:00,
2013-04-22 01:22:00,79.0,72.0,26.41,SE,127,10.0,14.0,78,0.00,,,0.00,,2013-04-22 05:22:00,
2013-04-22 01:32:00,79.0,71.0,26.41,SE,139,11.0,15.0,77,0.00,,,0.00,,2013-04-22 05:32:00,
2013-04-22 01:42:00,79.0,71.0,26.41,SE,139,11.0,15.0,77,0.00,,,0.00,,2013-04-22 05:42:00,
2013-04-22 01:52:00,79.0,71.0,26.41,SE,142,8.0,12.0,77,0.00,,,0.00,,2013-04-22 05:52:00,
2013-04-22 02:02:00,79.0,71.0,26.41,SSE,156,4.0,9.0,76,0.00,,,0.00,,2013-04-22 06:02:00,
2013-04-22 02:12:00,79.0,71.0,26.41,SSE,156,4.0,9.0,76,0.00,,,0.00,,2013-04-22 06:12:00,
2013-04-22 02:21:00,79.0,71.0,26.41,SSE,156,4.0,6.0,76,0.00,,,0.00,,2013-04-22 06:21:00,
2013-04-22 02:32:00,79.0,71.0,26.41,SSE,156,4.0,8.0,77,0.00,,,0.00,,2013-04-22 06:32:00,
2013-04-22 02:42:00,79.0,71.0,26.41,SSE,156,4.0,8.0,77,0.00,,,0.00,,2013-04-22 06:42:00,
2013-04-22 02:52:00,79.0,72.0,26.41,SE,138,5.0,10.0,78,0.00,,,0.00,,2013-04-22 06:52:00,
2013-04-22 03:01:00,78.0,71.0,26.41,SE,138,3.0,6.0,78,0.00,,,0.00,,2013-04-22 07:01:00,
2013-04-22 03:12:00,78.0,71.0,26.41,SE,138,3.0,6.0,78,0.00,,,0.00,,2013-04-22 07:12:00,
2013-04-22 03:21:00,78.0,72.0,26.41,SE,138,15.0,25.0,82,0.01,,,0.01,,2013-04-22 07:21:00,
2013-04-22 03:32:00,77.0,71.0,26.41,South,188,11.0,14.0,81,0.01,,,0.01,,2013-04-22 07:32:00,
2013-04-22 03:42:00,77.0,71.0,26.41,South,188,11.0,14.0,81,0.01,,,0.01,,2013-04-22 07:42:00,
2013-04-22 03:52:00,75.0,71.0,26.41,SW,233,13.0,20.0,87,0.18,,,0.18,,2013-04-22 07:52:00,
2013-04-22 04:02:00,74.0,71.0,26.41,SW,227,14.0,22.0,89,0.29,,,0.29,,2013-04-22 08:02:00,
2013-04-22 04:11:00,74.0,71.0,26.41,SW,227,14.0,22.0,89,0.29,,,0.29,,2013-04-22 08:11:00,
2013-04-22 04:22:00,72.0,69.0,26.41,South,171,9.0,16.0,91,0.48,,,0.49,,2013-04-22 08:22:00,
2013-04-22 04:32:00,71.0,68.0,26.41,South,188,6.0,7.0,91,0.54,,,0.55,,2013-04-22 08:32:00,
2013-04-22 04:42:00,71.0,68.0,26.41,South,188,6.0,7.0,91,0.54,,,0.55,,2013-04-22 08:42:00,
2013-04-22 04:53:00,70.0,67.0,26.41,SW,231,0.0,2.0,91,0.40,,,0.58,,2013-04-22 08:53:00,
2013-04-22 05:01:00,71.0,68.0,26.41,SW,232,2.0,4.0,91,0.29,,,0.58,,2013-04-22 09:01:00,
2013-04-22 05:11:00,71.0,68.0,26.41,SW,232,2.0,4.0,91,0.29,,,0.58,,2013-04-22 09:11:00,
2013-04-22 05:21:00,71.0,68.0,26.41,SW,233,0.0,0.0,91,0.11,,,0.59,,2013-04-22 09:21:00,
2013-04-22 05:33:00,71.0,68.0,26.41,SW,233,0.0,0.0,91,0.04,,,0.59,,2013-04-22 09:33:00,
2013-04-22 05:42:00,71.0,68.0,26.41,SW,233,0.0,0.0,91,0.04,,,0.59,,2013-04-22 09:42:00,
2013-04-22 05:52:00,71.0,69.0,26.41,WNW,293,1.0,3.0,92,0.01,,,0.59,,2013-04-22 09:52:00,
2013-04-22 06:03:00,72.0,70.0,26.41,WNW,294,0.0,4.0,92,0.01,,,0.59,,2013-04-22 10:03:00,
2013-04-22 06:12:00,72.0,70.0,26.41,WNW,294,0.0,4.0,92,0.01,,,0.59,,2013-04-22 10:12:00,
2013-04-22 06:22:00,73.0,71.0,26.41,WNW,295,0.0,5.0,92,0.00,,,0.59,,2013-04-22 10:22:00,
2013-04-22 06:32:00,73.0,71.0,26.41,WNW,295,0.0,0.0,92,0.00,,,0.59,,2013-04-22 10:32:00,
2013-04-22 06:42:00,73.0,71.0,26.41,WNW,295,0.0,0.0,92,0.00,,,0.59,,2013-04-22 10:42:00,
2013-04-22 06:53:00,73.0,70.0,26.41,WNW,295,0.0,0.0,91,0.00,,,0.59,,2013-04-22 10:53:00,
2013-04-22 07:02:00,72.0,69.0,26.41,WNW,295,0.0,1.0,91,0.00,,,0.59,,2013-04-22 11:02:00,
2013-04-22 07:12:00,73.0,71.0,26.41,WNW,295,0.0,3.0,92,0.00,,,0.59,,2013-04-22 11:12:00,
2013-04-22 07:22:00,73.0,71.0,26.41,WNW,295,0.0,3.0,92,0.00,,,0.59,,2013-04-22 11:22:00,
2013-04-22 07:32:00,73.0,71.0,26.41,NNE,12,1.0,4.0,92,0.00,,,0.59,,2013-04-22 11:32:00,
2013-04-22 07:42:00,73.0,71.0,26.41,NNE,12,1.0,4.0,92,0.00,,,0.59,,2013-04-22 11:42:00,
2013-04-22 07:52:00,73.0,70.0,26.41,ENE,71,3.0,6.0,91,0.00,,,0.59,,2013-04-22 11:52:00,
2013-04-22 08:02:00,74.0,72.0,26.41,East,79,5.0,7.0,92,0.00,,,0.59,,2013-04-22 12:02:00,
2013-04-22 08:12:00,75.0,73.0,26.41,East,93,5.0,10.0,92,0.00,,,0.59,,2013-04-22 12:12:00,
2013-04-22 08:21:00,75.0,73.0,26.41,East,93,5.0,10.0,92,0.00,,,0.59,,2013-04-22 12:21:00,
2013-04-22 08:32:00,76.0,74.0,26.41,East,85,6.0,12.0,92,0.00,,,0.59,,2013-04-22 12:32:00,
2013-04-22 08:42:00,76.0,74.0,26.41,East,85,6.0,12.0,92,0.00,,,0.59,,2013-04-22 12:42:00,
2013-04-22 08:52:00,75.0,72.0,26.41,East,89,9.0,12.0,91,0.00,,,0.59,,2013-04-22 12:52:00,
2013-04-22 09:01:00,76.0,73.0,26.41,East,96,10.0,16.0,91,0.00,,,0.59,,2013-04-22 13:01:00,
2013-04-22 09:11:00,76.0,73.0,26.41,East,96,10.0,16.0,91,0.00,,,0.59,,2013-04-22 13:11:00,
2013-04-22 09:22:00,76.0,73.0,26.41,ESE,105,10.0,14.0,91,0.00,,,0.59,,2013-04-22 13:22:00,
2013-04-22 09:32:00,76.0,73.0,26.41,ESE,105,7.0,13.0,91,0.00,,,0.59,,2013-04-22 13:32:00,
2013-04-22 09:42:00,76.0,73.0,26.41,ESE,105,7.0,13.0,91,0.00,,,0.59,,2013-04-22 13:42:00,
2013-04-22 09:53:00,76.0,73.0,26.41,East,100,9.0,13.0,90,0.00,,,0.59,,2013-04-22 13:53:00,
2013-04-22 10:02:00,77.0,74.0,26.41,ESE,105,9.0,14.0,90,0.00,,,0.59,,2013-04-22 14:02:00,
2013-04-22 10:11:00,77.0,74.0,26.41,ESE,123,18.0,22.0,89,0.00,,,0.59,,2013-04-22 14:11:00,
2013-04-22 10:21:00,77.0,74.0,26.41,ESE,123,18.0,22.0,89,0.00,,,0.59,,2013-04-22 14:21:00,
2013-04-22 10:33:00,77.0,74.0,26.41,South,171,20.0,23.0,89,0.00,,,0.59,,2013-04-22 14:33:00,
2013-04-22 10:42:00,77.0,74.0,26.41,South,171,20.0,23.0,89,0.00,,,0.59,,2013-04-22 14:42:00,
2013-04-22 10:52:00,76.0,72.0,26.41,SSE,162,19.0,23.0,87,0.00,,,0.59,,2013-04-22 14:52:00,
2013-04-22 11:02:00,77.0,73.0,26.41,SSE,156,17.0,20.0,88,0.00,,,0.59,,2013-04-22 15:02:00,
2013-04-22 11:12:00,77.0,73.0,26.41,SSE,156,17.0,20.0,88,0.00,,,0.59,,2013-04-22 15:12:00,
2013-04-22 11:22:00,78.0,73.0,26.41,SSE,163,17.0,20.0,86,0.00,,,0.59,,2013-04-22 15:22:00,
2013-04-22 11:33:00,78.0,73.0,26.41,SSE,162,13.0,18.0,85,0.00,,,0.59,,2013-04-22 15:33:00,
2013-04-22 11:43:00,78.0,73.0,26.41,SSE,162,13.0,18.0,85,0.00,,,0.59,,2013-04-22 15:43:00,
2013-04-22 11:53:00,79.0,72.0,26.41,SSE,162,15.0,18.0,79,0.00,,,0.59,,2013-04-22 15:53:00,
2013-04-22 12:03:00,79.0,72.0,26.41,SSE,160,14.0,16.0,78,0.00,,,0.59,,2013-04-22 16:03:00,
2013-04-22 12:12:00,79.0,72.0,26.41,SSE,160,14.0,16.0,78,0.00,,,0.59,,2013-04-22 16:12:00,
2013-04-22 12:23:00,80.0,72.0,26.41,South,181,10.0,15.0,77,0.00,,,0.59,,2013-04-22 16:23:00,
2013-04-22 12:33:00,80.0,72.0,26.41,SSE,167,11.0,14.0,77,0.00,,,0.59,,2013-04-22 16:33:00,
2013-04-22 12:42:00,80.0,72.0,26.41,SSE,167,11.0,14.0,77,0.00,,,0.59,,2013-04-22 16:42:00,
2013-04-22 12:52:00,81.0,73.0,26.41,SSE,156,12.0,16.0,77,0.00,,,0.59,,2013-04-22 16:52:00,
2013-04-22 13:02:00,81.0,73.0,26.41,SSE,152,13.0,16.0,76,0.00,,,0.59,,2013-04-22 17:02:00,
2013-04-22 13:12:00,81.0,73.0,26.41,SSE,152,13.0,16.0,76,0.00,,,0.59,,2013-04-22 17:12:00,
2013-04-22 13:22:00,82.0,72.0,26.41,SSE,158,9.0,14.0,72,0.00,,,0.59,,2013-04-22 17:22:00,
2013-04-22 13:32:00,82.0,71.0,26.41,SSE,163,10.0,14.0,70,0.00,,,0.59,,2013-04-22 17:32:00,
2013-04-22 13:42:00,82.0,71.0,26.41,SSE,163,10.0,14.0,70,0.00,,,0.59,,2013-04-22 17:42:00,
2013-04-22 13:52:00,84.0,72.0,26.41,South,169,7.0,11.0,67,0.00,,,0.59,,2013-04-22 17:52:00,
2013-04-22 14:01:00,85.0,72.0,26.41,South,170,7.0,10.0,66,0.00,,,0.59,,2013-04-22 18:01:00,
2013-04-22 14:12:00,85.0,72.0,26.41,South,170,7.0,10.0,66,0.00,,,0.59,,2013-04-22 18:12:00,
2013-04-22 14:22:00,84.0,72.0,26.41,South,170,5.0,7.0,67,0.00,,,0.59,,2013-04-22 18:22:00,
2013-04-22 14:32:00,83.0,71.0,26.41,South,170,4.0,6.0,67,0.00,,,0.59,,2013-04-22 18:32:00,
2013-04-22 14:42:00,83.0,71.0,26.41,South,170,4.0,6.0,67,0.00,,,0.59,,2013-04-22 18:42:00,
2013-04-22 14:52:00,84.0,72.0,26.41,South,170,4.0,5.0,67,0.00,,,0.59,,2013-04-22 18:52:00,
2013-04-22 15:01:00,85.0,72.0,26.41,South,170,3.0,6.0,66,0.00,,,0.59,,2013-04-22 19:01:00,
2013-04-22 15:12:00,85.0,72.0,26.41,South,170,3.0,6.0,66,0.00,,,0.59,,2013-04-22 19:12:00,
2013-04-22 15:22:00,85.0,72.0,26.41,South,170,2.0,6.0,65,0.00,,,0.59,,2013-04-22 19:22:00,
2013-04-22 15:32:00,85.0,71.0,26.41,South,170,3.0,6.0,63,0.00,,,0.59,,2013-04-22 19:32:00,
2013-04-22 15:42:00,85.0,71.0,26.41,South,170,3.0,6.0,63,0.00,,,0.59,,2013-04-22 19:42:00,
2013-04-22 15:53:00,85.0,71.0,26.41,South,170,3.0,6.0,63,0.00,,,0.59,,2013-04-22 19:53:00,
2013-04-22 16:02:00,85.0,72.0,26.41,South,170,3.0,5.0,65,0.00,,,0.59,,2013-04-22 20:02:00,
2013-04-22 16:11:00,85.0,72.0,26.41,South,170,3.0,5.0,65,0.00,,,0.59,,2013-04-22 20:11:00,
2013-04-22 16:22:00,84.0,71.0,26.41,South,184,5.0,11.0,66,0.00,,,0.59,,2013-04-22 20:22:00,
2013-04-22 16:32:00,84.0,72.0,26.41,South,184,3.0,8.0,67,0.00,,,0.59,,2013-04-22 20:32:00,
2013-04-22 16:42:00,84.0,72.0,26.41,South,184,3.0,8.0,67,0.00,,,0.59,,2013-04-22 20:42:00,
2013-04-22 16:52:00,85.0,73.0,26.41,South,183,3.0,6.0,67,0.00,,,0.59,,2013-04-22 20:52:00,
2013-04-22 17:02:00,86.0,72.0,26.41,South,183,2.0,5.0,64,0.00,,,0.59,,2013-04-22 21:02:00,
2013-04-22 17:12:00,85.0,73.0,26.41,South,183,0.0,5.0,67,0.00,,,0.59,,2013-04-22 21:12:00,
2013-04-22 17:21:00,85.0,73.0,26.41,South,183,0.0,5.0,67,0.00,,,0.59,,2013-04-22 21:21:00,
2013-04-22 17:32:00,86.0,72.0,26.41,South,183,0.0,5.0,63,0.00,,,0.59,,2013-04-22 21:32:00,
2013-04-22 17:43:00,86.0,72.0,26.41,South,183,0.0,5.0,63,0.00,,,0.59,,2013-04-22 21:43:00,
2013-04-22 17:53:00,84.0,71.0,26.41,South,183,0.0,3.0,65,0.00,,,0.59,,2013-04-22 21:53:00,
2013-04-22 18:03:00,84.0,71.0,26.41,South,183,0.0,0.0,65,0.00,,,0.59,,2013-04-22 22:03:00,
2013-04-22 18:12:00,84.0,71.0,26.41,South,183,0.0,0.0,65,0.00,,,0.59,,2013-04-22 22:12:00,
2013-04-22 18:22:00,85.0,72.0,26.41,South,183,0.0,0.0,66,0.00,,,0.59,,2013-04-22 22:22:00,
2013-04-22 18:33:00,84.0,70.0,26.41,South,183,0.0,0.0,64,0.00,,,0.59,,2013-04-22 22:33:00,
2013-04-22 18:42:00,84.0,70.0,26.41,South,183,0.0,0.0,64,0.00,,,0.59,,2013-04-22 22:42:00,
2013-04-22 18:52:00,84.0,71.0,26.41,South,183,0.0,0.0,65,0.00,,,0.59,,2013-04-22 22:52:00,
2013-04-22 19:02:00,84.0,70.0,26.41,South,183,0.0,0.0,64,0.00,,,0.59,,2013-04-22 23:02:00,
2013-04-22 19:11:00,82.0,70.0,26.41,South,184,0.0,0.0,68,0.00,,,0.59,,2013-04-22 23:11:00,
2013-04-22 19:21:00,82.0,70.0,26.41,South,184,0.0,0.0,68,0.00,,,0.59,,2013-04-22 23:21:00,
2013-04-22 19:33:00,82.0,70.0,26.41,South,184,0.0,0.0,68,0.00,,,0.59,,2013-04-22 23:33:00,
2013-04-22 19:42:00,82.0,70.0,26.41,South,184,0.0,0.0,68,0.00,,,0.59,,2013-04-22 23:42:00,
2013-04-22 19:52:00,80.0,69.0,26.41,South,184,0.0,0.0,70,0.00,,,0.59,,2013-04-22 23:52:00,
2013-04-22 20:02:00,79.0,69.0,26.41,South,184,0.0,0.0,72,0.00,,,0.59,,2013-04-23 00:02:00,
2013-04-22 20:12:00,79.0,69.0,26.41,South,184,0.0,0.0,72,0.00,,,0.59,,2013-04-23 00:12:00,
2013-04-22 20:21:00,79.0,69.0,26.41,South,184,0.0,0.0,72,0.00,,,0.59,,2013-04-23 00:21:00,
2013-04-22 20:32:00,79.0,70.0,26.41,South,184,0.0,0.0,73,0.00,,,0.59,,2013-04-23 00:32:00,
2013-04-22 20:42:00,79.0,70.0,26.41,South,184,0.0,0.0,73,0.00,,,0.59,,2013-04-23 00:42:00,
2013-04-22 20:52:00,78.0,69.0,26.41,South,184,0.0,0.0,75,0.00,,,0.59,,2013-04-23 00:52:00,
2013-04-22 21:01:00,78.0,69.0,26.41,South,184,0.0,0.0,75,0.00,,,0.59,,2013-04-23 01:01:00,
2013-04-22 21:11:00,78.0,69.0,26.41,South,184,0.0,0.0,75,0.00,,,0.59,,2013-04-23 01:11:00,
2013-04-22 21:21:00,79.0,71.0,26.41,South,181,1.0,4.0,76,0.00,,,0.59,,2013-04-23 01:21:00,
2013-04-22 21:32:00,78.0,68.0,26.41,North,2,5.0,10.0,72,0.00,,,0.59,,2013-04-23 01:32:00,
2013-04-22 21:42:00,78.0,68.0,26.41,North,2,5.0,10.0,72,0.00,,,0.59,,2013-04-23 01:42:00,
2013-04-22 21:52:00,78.0,68.0,26.41,North,9,5.0,13.0,71,0.00,,,0.59,,2013-04-23 01:52:00,
2013-04-22 22:02:00,78.0,68.0,26.41,NNE,17,5.0,11.0,72,0.00,,,0.59,,2013-04-23 02:02:00,
2013-04-22 22:12:00,78.0,68.0,26.41,NNE,17,5.0,11.0,72,0.00,,,0.59,,2013-04-23 02:12:00,
2013-04-22 22:21:00,77.0,71.0,26.41,ENE,62,16.0,23.0,81,0.00,,,0.59,,2013-04-23 02:21:00,
2013-04-22 22:32:00,76.0,69.0,26.41,NE,43,16.0,25.0,80,0.00,,,0.59,,2013-04-23 02:32:00,
2013-04-22 22:42:00,76.0,69.0,26.41,NE,43,16.0,25.0,80,0.00,,,0.59,,2013-04-23 02:42:00,
2013-04-22 22:52:00,76.0,70.0,26.41,ENE,77,14.0,24.0,81,0.00,,,0.59,,2013-04-23 02:52:00,
2013-04-22 23:01:00,76.0,70.0,26.41,East,80,12.0,22.0,83,0.00,,,0.59,,2013-04-23 03:01:00,
2013-04-22 23:11:00,76.0,70.0,26.41,East,80,12.0,22.0,83,0.00,,,0.59,,2013-04-23 03:11:00,
2013-04-22 23:21:00,76.0,71.0,26.41,East,96,13.0,21.0,84,0.00,,,0.59,,2013-04-23 03:21:00,
2013-04-22 23:33:00,76.0,71.0,26.41,East,99,16.0,20.0,84,0.00,,,0.59,,2013-04-23 03:33:00,
2013-04-22 23:43:00,76.0,71.0,26.41,East,99,16.0,20.0,84,0.00,,,0.59,,2013-04-23 03:43:00,
2013-04-22 23:53:00,76.0,71.0,26.41,ESE,110,14.0,20.0,85,0.00,,,0.59,,2013-04-23 03:53:00,